Location: Unspecified
(0.0000°N, 0.0000°E)
Time: 22:44:13
(UTC+00:00)

MIDAS 4 DEB - Pass Details

Date: 23 December 2025
Orbit: 3362 x 3904 km, 95.8° (Epoch: 13 January)

Event Time Altitude Azimuth Distance (km) Brightness Sun altitude
Rises 04:10:33 0° 150° (SSE) 8,072 ? -24.7°
Reaches altitude 10° 04:15:49 10° 142° (SE) 7,034 ? -23.5°
Maximum altitude 04:33:44 41° 77° (ENE) 4,818 ? -19.5°
Drops below altitude 10° 04:50:35 10° 14° (NNE) 6,742 ? -15.7°
Sets 04:55:16 0° 7° (N) 7,712 ? -14.6°
